| time (UTC) | temp F | wind direction | speed MPH | gust MPH | rain 1hr in | rain 24hr in | rain mn in | humidity % | barometer mb |
| 20260508111034 | 59 | 249 | 0.0 | 2.0 | 0.00 | 0.00 | 0.00 | 73 | 1016.8 |
| 20260508110531 | 59 | 273 | 0.0 | 3.0 | 0.00 | 0.00 | 0.00 | 72 | 1016.8 |
| 20260508110049 | 59 | 0 | 0.0 | 3.0 | 0.00 | 0.00 | 0.00 | 72 | 1016.8 |
| 20260508105531 | 59 | 0 | 0.0 | 3.0 | 0.00 | 0.00 | 0.00 | 72 | 1016.8 |
| 20260508105031 | 59 | 0 | 0.0 | 2.0 | 0.00 | 0.00 | 0.00 | 73 | 1016.7 |
| 20260508104533 | 59 | 0 | 0.0 | 2.0 | 0.00 | 0.00 | 0.00 | 75 | 1016.8 |
| 20260508104030 | 59 | 0 | 0.0 | 2.0 | 0.00 | 0.00 | 0.00 | 76 | 1016.8 |
| 20260508103529 | 59 | 241 | 0.0 | 2.0 | 0.00 | 0.00 | 0.00 | 79 | 1016.9 |
| 20260508103049 | 59 | 0 | 0.0 | 3.0 | 0.00 | 0.00 | 0.00 | 78 | 1016.9 |
| 20260508102530 | 59 | 0 | 0.0 | 3.0 | 0.00 | 0.00 | 0.00 | 79 | 1017.0 |
| 20260508102031 | 59 | 225 | 0.0 | 3.0 | 0.00 | 0.00 | 0.00 | 78 | 1016.9 |
| 20260508101543 | 59 | 0 | 0.0 | 3.0 | 0.00 | 0.00 | 0.00 | 78 | 1016.9 |
| 20260508101031 | 58 | 228 | 0.0 | 3.0 | 0.00 | 0.00 | 0.00 | 81 | 1016.9 |
| 20260508100531 | 58 | 228 | 1.0 | 3.0 | 0.00 | 0.00 | 0.00 | 83 | 1017.0 |
| 20260508100039 | 58 | 238 | 1.0 | 3.0 | 0.00 | 0.00 | 0.00 | 85 | 1016.9 |
| 20260508095530 | 59 | 238 | 0.0 | 1.0 | 0.00 | 0.00 | 0.00 | 85 | 1017.0 |
| 20260508095032 | 59 | 0 | 0.0 | 3.0 | 0.00 | 0.00 | 0.00 | 84 | 1017.0 |
| 20260508094558 | 59 | 0 | 0.0 | 3.0 | 0.00 | 0.00 | 0.00 | 85 | 1017.0 |
| 20260508094032 | 59 | 238 | 1.0 | 3.0 | 0.00 | 0.00 | 0.00 | 87 | 1017.0 |
| 20260508093532 | 59 | 0 | 0.0 | 2.0 | 0.00 | 0.00 | 0.00 | 87 | 1017.0 |
| 20260508093037 | 59 | 0 | 0.0 | 2.0 | 0.00 | 0.00 | 0.00 | 87 | 1017.0 |
| 20260508092529 | 59 | 238 | 0.0 | 2.0 | 0.00 | 0.00 | 0.00 | 88 | 1017.0 |
| 20260508092031 | 59 | 0 | 0.0 | 2.0 | 0.00 | 0.00 | 0.00 | 88 | 1017.0 |
| 20260508091540 | 59 | 238 | 0.0 | 2.0 | 0.00 | 0.00 | 0.00 | 88 | 1017.0 |
| 20260508091031 | 59 | 0 | 0.0 | 2.0 | 0.00 | 0.00 | 0.00 | 88 | 1017.1 |
| 20260508090530 | 59 | 0 | 0.0 | 2.0 | 0.00 | 0.00 | 0.00 | 88 | 1016.9 |
| 20260508090043 | 59 | 0 | 0.0 | 1.0 | 0.00 | 0.00 | 0.00 | 88 | 1016.9 |
| 20260508085529 | 59 | 0 | 0.0 | 1.0 | 0.00 | 0.00 | 0.00 | 88 | 1016.9 |
| 20260508085030 | 59 | 0 | 0.0 | 1.0 | 0.00 | 0.00 | 0.00 | 89 | 1016.9 |
| 20260508084537 | 59 | 0 | 0.0 | 2.0 | 0.00 | 0.00 | 0.00 | 89 | 1016.9 |
| 20260508084030 | 59 | 0 | 0.0 | 2.0 | 0.00 | 0.00 | 0.00 | 89 | 1017.0 |
| 20260508083529 | 59 | 0 | 0.0 | 2.0 | 0.00 | 0.00 | 0.00 | 89 | 1017.0 |
| 20260508083039 | 59 | 241 | 0.0 | 2.0 | 0.00 | 0.00 | 0.00 | 89 | 1016.9 |
| 20260508082528 | 60 | 0 | 0.0 | 2.0 | 0.00 | 0.00 | 0.00 | 89 | 1017.0 |
| 20260508082035 | 60 | 261 | 0.0 | 2.0 | 0.00 | 0.00 | 0.00 | 89 | 1017.0 |
| 20260508081542 | 60 | 261 | 0.0 | 1.0 | 0.00 | 0.00 | 0.00 | 89 | 1017.0 |
| 20260508081033 | 60 | 0 | 0.0 | 2.0 | 0.00 | 0.00 | 0.00 | 89 | 1017.0 |
| 20260508080530 | 60 | 0 | 0.0 | 2.0 | 0.00 | 0.00 | 0.00 | 89 | 1017.0 |
| 20260508080038 | 60 | 261 | 0.0 | 2.0 | 0.00 | 0.00 | 0.00 | 89 | 1016.9 |
| 20260508075529 | 60 | 0 | 0.0 | 2.0 | 0.00 | 0.00 | 0.00 | 88 | 1017.0 |
| 20260508075031 | 60 | 0 | 0.0 | 2.0 | 0.00 | 0.00 | 0.00 | 88 | 1017.0 |
| 20260508074549 | 60 | 0 | 0.0 | 2.0 | 0.00 | 0.00 | 0.00 | 87 | 1016.9 |
| 20260508074029 | 61 | 248 | 0.0 | 1.0 | 0.00 | 0.00 | 0.00 | 86 | 1017.0 |
| 20260508073531 | 61 | 0 | 0.0 | 1.0 | 0.00 | 0.00 | 0.00 | 86 | 1017.0 |
| 20260508073044 | 61 | 0 | 0.0 | 1.0 | 0.00 | 0.00 | 0.00 | 85 | 1017.0 |
| 20260508072530 | 62 | 0 | 0.0 | 0.0 | 0.00 | 0.00 | 0.00 | 85 | 1017.0 |
| 20260508072029 | 62 | 0 | 0.0 | 0.0 | 0.00 | 0.00 | 0.00 | 85 | 1017.0 |
| 20260508071542 | 62 | 0 | 0.0 | 0.0 | 0.00 | 0.00 | 0.00 | 85 | 1017.0 |
| 20260508071029 | 62 | 0 | 0.0 | 0.0 | 0.00 | 0.00 | 0.00 | 84 | 1017.0 |
| 20260508070529 | 62 | 0 | 0.0 | 0.0 | 0.00 | 0.00 | 0.00 | 84 | 1017.0 |
| 20260508070040 | 63 | 0 | 0.0 | 1.0 | 0.00 | 0.00 | 0.00 | 83 | 1016.9 |
| 20260508065533 | 63 | 0 | 0.0 | 1.0 | 0.00 | 0.00 | 0.00 | 83 | 1016.9 |
| 20260508065031 | 63 | 0 | 0.0 | 1.0 | 0.00 | 0.00 | 0.00 | 83 | 1016.8 |
| 20260508064549 | 63 | 0 | 0.0 | 1.0 | 0.00 | 0.00 | 0.00 | 83 | 1016.9 |
| 20260508064029 | 64 | 284 | 0.0 | 1.0 | 0.00 | 0.00 | 0.00 | 82 | 1016.8 |
| 20260508063531 | 64 | 0 | 0.0 | 1.0 | 0.00 | 0.00 | 0.00 | 82 | 1017.0 |
| 20260508063035 | 64 | 0 | 0.0 | 2.0 | 0.00 | 0.00 | 0.00 | 82 | 1017.2 |
| 20260508062529 | 64 | 0 | 0.0 | 2.0 | 0.00 | 0.00 | 0.00 | 82 | 1017.1 |
| 20260508062029 | 64 | 0 | 0.0 | 2.0 | 0.00 | 0.00 | 0.00 | 82 | 1017.2 |
| 20260508061539 | 64 | 0 | 0.0 | 2.0 | 0.00 | 0.00 | 0.00 | 82 | 1017.2 |
| 20260508061032 | 64 | 0 | 0.0 | 1.0 | 0.00 | 0.00 | 0.00 | 82 | 1017.1 |
| 20260508060531 | 64 | 0 | 0.0 | 1.0 | 0.00 | 0.00 | 0.00 | 81 | 1017.2 |
| 20260508060038 | 64 | 0 | 0.0 | 1.0 | 0.00 | 0.00 | 0.00 | 81 | 1017.2 |
| 20260508055530 | 65 | 0 | 0.0 | 1.0 | 0.00 | 0.00 | 0.00 | 80 | 1017.2 |
| 20260508055030 | 65 | 0 | 0.0 | 1.0 | 0.00 | 0.00 | 0.00 | 79 | 1017.2 |
| 20260508054539 | 66 | 0 | 0.0 | 1.0 | 0.00 | 0.00 | 0.00 | 78 | 1017.3 |
| 20260508054033 | 66 | 0 | 0.0 | 1.0 | 0.00 | 0.00 | 0.00 | 77 | 1017.2 |
| 20260508053531 | 67 | 0 | 0.0 | 0.0 | 0.00 | 0.00 | 0.00 | 76 | 1017.2 |
| 20260508053039 | 67 | 0 | 0.0 | 1.0 | 0.00 | 0.00 | 0.00 | 75 | 1017.2 |
| 20260508052531 | 67 | 0 | 0.0 | 2.0 | 0.00 | 0.00 | 0.00 | 74 | 1017.1 |
| 20260508052034 | 68 | 0 | 0.0 | 3.0 | 0.00 | 0.00 | 0.00 | 74 | 1017.2 |
| 20260508051539 | 68 | 228 | 0.0 | 3.0 | 0.00 | 0.00 | 0.00 | 73 | 1017.1 |
| 20260508051031 | 68 | 236 | 0.0 | 2.0 | 0.00 | 0.00 | 0.00 | 72 | 1017.2 |
| 20260508050531 | 68 | 238 | 1.0 | 2.0 | 0.00 | 0.00 | 0.00 | 72 | 1017.2 |
| 20260508050041 | 68 | 0 | 0.0 | 2.0 | 0.00 | 0.00 | 0.00 | 72 | 1017.3 |
| 20260508045530 | 68 | 238 | 1.0 | 2.0 | 0.00 | 0.00 | 0.00 | 72 | 1017.4 |
| 20260508045030 | 68 | 238 | 1.0 | 2.0 | 0.00 | 0.00 | 0.00 | 71 | 1017.3 |
| 20260508044537 | 69 | 238 | 0.0 | 2.0 | 0.00 | 0.00 | 0.00 | 70 | 1017.4 |
| 20260508044042 | 69 | 0 | 0.0 | 2.0 | 0.00 | 0.00 | 0.00 | 70 | 1017.3 |
| 20260508043530 | 69 | 0 | 0.0 | 2.0 | 0.00 | 0.00 | 0.00 | 70 | 1017.3 |
| 20260508043042 | 70 | 0 | 0.0 | 2.0 | 0.00 | 0.00 | 0.00 | 70 | 1017.4 |
| 20260508042531 | 70 | 0 | 0.0 | 2.0 | 0.00 | 0.00 | 0.00 | 70 | 1017.3 |
| 20260508042030 | 70 | 238 | 1.0 | 2.0 | 0.00 | 0.00 | 0.00 | 71 | 1017.2 |
| 20260508041543 | 70 | 238 | 1.0 | 2.0 | 0.00 | 0.00 | 0.00 | 71 | 1017.2 |
| 20260508041030 | 69 | 236 | 0.0 | 4.0 | 0.00 | 0.00 | 0.00 | 71 | 1017.2 |
| 20260508040532 | 69 | 236 | 1.0 | 4.0 | 0.00 | 0.00 | 0.00 | 72 | 1017.2 |
| 20260508040044 | 69 | 217 | 1.0 | 4.0 | 0.00 | 0.00 | 0.00 | 72 | 1017.1 |
| 20260508035532 | 69 | 0 | 0.0 | 1.0 | 0.00 | 0.01 | 0.00 | 71 | 1017.0 |
| 20260508035032 | 70 | 0 | 0.0 | 1.0 | 0.00 | 0.01 | 0.00 | 71 | 1017.0 |
| 20260508034539 | 70 | 0 | 0.0 | 1.0 | 0.00 | 0.01 | 0.00 | 71 | 1017.0 |
| 20260508034033 | 70 | 0 | 0.0 | 0.0 | 0.00 | 0.01 | 0.00 | 71 | 1016.9 |
| 20260508033531 | 70 | 0 | 0.0 | 1.0 | 0.00 | 0.01 | 0.00 | 70 | 1016.9 |
| 20260508033039 | 70 | 0 | 0.0 | 1.0 | 0.00 | 0.01 | 0.00 | 70 | 1016.9 |
| 20260508032531 | 70 | 0 | 0.0 | 2.0 | 0.00 | 0.01 | 0.00 | 70 | 1016.8 |
| 20260508032031 | 71 | 0 | 0.0 | 2.0 | 0.00 | 0.01 | 0.00 | 69 | 1016.8 |
| 20260508031539 | 71 | 0 | 0.0 | 2.0 | 0.00 | 0.01 | 0.00 | 69 | 1016.8 |
| 20260508031030 | 71 | 120 | 1.0 | 2.0 | 0.00 | 0.01 | 0.00 | 68 | 1016.7 |
| 20260508030531 | 71 | 343 | 0.0 | 1.0 | 0.00 | 0.01 | 0.00 | 67 | 1016.7 |
| 20260508030035 | 72 | 0 | 0.0 | 1.0 | 0.00 | 0.01 | 0.00 | 67 | 1016.6 |
| 20260508025527 | 72 | 0 | 0.0 | 1.0 | 0.00 | 0.01 | 0.00 | 66 | 1016.5 |
| 20260508025031 | 73 | 0 | 0.0 | 1.0 | 0.00 | 0.01 | 0.00 | 66 | 1016.5 |
| 20260508024543 | 73 | 0 | 0.0 | 1.0 | 0.00 | 0.01 | 0.00 | 65 | 1016.5 |
| 20260508024030 | 73 | 0 | 0.0 | 3.0 | 0.00 | 0.01 | 0.00 | 64 | 1016.4 |
| 20260508023531 | 74 | 0 | 0.0 | 4.0 | 0.00 | 0.01 | 0.00 | 63 | 1016.5 |
| 20260508023039 | 74 | 334 | 1.0 | 4.0 | 0.00 | 0.01 | 0.00 | 63 | 1016.4 |
| 20260508022530 | 74 | 17 | 1.0 | 3.0 | 0.00 | 0.01 | 0.00 | 62 | 1016.4 |
| 20260508022031 | 74 | 341 | 1.0 | 3.0 | 0.00 | 0.01 | 0.00 | 61 | 1016.4 |
| 20260508021541 | 75 | 316 | 0.0 | 3.0 | 0.00 | 0.01 | 0.00 | 62 | 1016.4 |
| 20260508021030 | 75 | 304 | 0.0 | 3.0 | 0.00 | 0.01 | 0.00 | 61 | 1016.3 |
| 20260508020530 | 75 | 313 | 1.0 | 3.0 | 0.00 | 0.01 | 0.00 | 61 | 1016.4 |
| 20260508020038 | 75 | 323 | 1.0 | 3.0 | 0.00 | 0.01 | 0.00 | 60 | 1016.5 |
| 20260508015531 | 76 | 323 | 0.0 | 3.0 | 0.00 | 0.01 | 0.00 | 60 | 1016.4 |
| 20260508015029 | 76 | 335 | 1.0 | 4.0 | 0.00 | 0.01 | 0.00 | 59 | 1016.5 |
| 20260508014548 | 76 | 0 | 1.0 | 4.0 | 0.00 | 0.01 | 0.00 | 59 | 1016.5 |
| 20260508014031 | 76 | 331 | 1.0 | 4.0 | 0.00 | 0.01 | 0.00 | 58 | 1016.4 |
| 20260508013530 | 76 | 324 | 0.0 | 2.0 | 0.00 | 0.01 | 0.00 | 60 | 1016.5 |
| 20260508013046 | 76 | 0 | 0.0 | 4.0 | 0.00 | 0.01 | 0.00 | 59 | 1016.5 |
| 20260508012532 | 77 | 348 | 0.0 | 4.0 | 0.00 | 0.01 | 0.00 | 58 | 1016.5 |
| 20260508012031 | 77 | 5 | 1.0 | 4.0 | 0.00 | 0.01 | 0.00 | 59 | 1016.5 |
| 20260508011543 | 77 | 18 | 2.0 | 6.0 | 0.00 | 0.01 | 0.00 | 58 | 1016.5 |
| 20260508011031 | 77 | 360 | 3.0 | 6.0 | 0.00 | 0.01 | 0.00 | 57 | 1016.5 |
| 20260508010530 | 77 | 0 | 2.0 | 4.0 | 0.00 | 0.01 | 0.00 | 57 | 1016.5 |
| 20260508010038 | 77 | 335 | 1.0 | 4.0 | 0.00 | 0.01 | 0.00 | 58 | 1016.6 |
| 20260508005534 | 77 | 219 | 1.0 | 4.0 | 0.00 | 0.01 | 0.00 | 56 | 1016.6 |
| 20260508005029 | 78 | 0 | 1.0 | 4.0 | 0.00 | 0.01 | 0.00 | 57 | 1016.7 |
| 20260508004537 | 78 | 80 | 1.0 | 5.0 | 0.00 | 0.01 | 0.00 | 58 | 1016.7 |
| 20260508004033 | 78 | 333 | 0.0 | 5.0 | 0.00 | 0.01 | 0.00 | 58 | 1016.7 |
| 20260508003532 | 78 | 5 | 1.0 | 5.0 | 0.00 | 0.01 | 0.00 | 58 | 1016.7 |
| 20260508003057 | 77 | 347 | 0.0 | 5.0 | 0.00 | 0.01 | 0.00 | 60 | 1016.8 |
| 20260508002531 | 77 | 140 | 2.0 | 5.0 | 0.00 | 0.01 | 0.00 | 59 | 1016.9 |
| 20260508002034 | 77 | 151 | 2.0 | 7.0 | 0.00 | 0.01 | 0.00 | 59 | 1016.8 |
| 20260508001544 | 77 | 142 | 3.0 | 7.0 | 0.00 | 0.01 | 0.00 | 56 | 1016.8 |
| 20260508001031 | 77 | 331 | 1.0 | 5.0 | 0.00 | 0.01 | 0.00 | 58 | 1016.8 |
| 20260508000528 | 77 | 129 | 2.0 | 5.0 | 0.00 | 0.01 | 0.00 | 58 | 1016.7 |
| 20260508000045 | 78 | 169 | 1.0 | 5.0 | 0.00 | 0.01 | 0.00 | 60 | 1016.7 |
| 20260507235530 | 78 | 153 | 2.0 | 5.0 | 0.00 | 0.01 | 0.00 | 57 | 1016.8 |
| 20260507235028 | 78 | 50 | 0.0 | 4.0 | 0.00 | 0.01 | 0.00 | 57 | 1016.8 |
| 20260507234539 | 77 | 130 | 1.0 | 7.0 | 0.00 | 0.01 | 0.00 | 59 | 1016.8 |
| 20260507234030 | 76 | 179 | 2.0 | 7.0 | 0.00 | 0.01 | 0.00 | 58 | 1016.9 |
| 20260507233529 | 77 | 140 | 3.0 | 7.0 | 0.00 | 0.01 | 0.00 | 57 | 1016.8 |
| 20260507233037 | 77 | 126 | 2.0 | 7.0 | 0.00 | 0.01 | 0.00 | 59 | 1017.0 |
| 20260507232531 | 77 | 160 | 2.0 | 5.0 | 0.00 | 0.01 | 0.00 | 57 | 1017.0 |
| 20260507232030 | 77 | 148 | 1.0 | 6.0 | 0.00 | 0.01 | 0.00 | 58 | 1017.1 |
| 20260507231543 | 77 | 157 | 2.0 | 6.0 | 0.00 | 0.01 | 0.00 | 59 | 1017.1 |
| 20260507231032 | 76 | 157 | 2.0 | 7.0 | 0.00 | 0.01 | 0.00 | 61 | 1017.2 |
| 20260507230533 | 76 | 152 | 3.0 | 7.0 | 0.00 | 0.01 | 0.00 | 61 | 1017.3 |
| 20260507230042 | 76 | 142 | 3.0 | 8.0 | 0.00 | 0.01 | 0.00 | 61 | 1017.3 |
| 20260507225528 | 76 | 321 | 4.0 | 8.0 | 0.00 | 0.01 | 0.00 | 61 | 1017.4 |
| 20260507225031 | 76 | 168 | 2.0 | 7.0 | 0.00 | 0.01 | 0.00 | 61 | 1017.3 |
| 20260507224557 | 76 | 126 | 2.0 | 8.0 | 0.00 | 0.01 | 0.00 | 61 | 1017.3 |
| 20260507224030 | 76 | 128 | 3.0 | 8.0 | 0.00 | 0.01 | 0.00 | 62 | 1017.4 |
| 20260507223530 | 77 | 146 | 2.0 | 5.0 | 0.00 | 0.01 | 0.00 | 60 | 1017.4 |
| 20260507223041 | 77 | 0 | 2.0 | 6.0 | 0.00 | 0.01 | 0.00 | 59 | 1017.5 |
| 20260507222529 | 78 | 146 | 2.0 | 6.0 | 0.00 | 0.01 | 0.00 | 58 | 1017.6 |
| 20260507222028 | 78 | 49 | 2.0 | 6.0 | 0.00 | 0.01 | 0.00 | 58 | 1017.7 |
| 20260507221534 | 78 | 155 | 2.0 | 6.0 | 0.00 | 0.01 | 0.00 | 57 | 1017.7 |
| 20260507221031 | 78 | 0 | 2.0 | 8.0 | 0.00 | 0.01 | 0.00 | 58 | 1017.7 |
| 20260507220532 | 78 | 324 | 3.0 | 8.0 | 0.00 | 0.01 | 0.00 | 57 | 1017.8 |
| 20260507220042 | 78 | 47 | 2.0 | 8.0 | 0.00 | 0.01 | 0.00 | 58 | 1017.8 |
| 20260507215532 | 78 | 132 | 2.0 | 8.0 | 0.00 | 0.01 | 0.00 | 58 | 1017.8 |
| 20260507215030 | 77 | 332 | 1.0 | 7.0 | 0.00 | 0.01 | 0.00 | 59 | 1017.9 |
| 20260507214539 | 76 | 21 | 2.0 | 9.0 | 0.00 | 0.01 | 0.00 | 62 | 1018.0 |
| 20260507214030 | 75 | 0 | 2.0 | 9.0 | 0.00 | 0.01 | 0.00 | 62 | 1018.0 |
| 20260507213533 | 76 | 148 | 3.0 | 9.0 | 0.00 | 0.01 | 0.00 | 60 | 1018.0 |
| 20260507213041 | 76 | 343 | 2.0 | 9.0 | 0.00 | 0.01 | 0.00 | 60 | 1018.1 |
| 20260507212530 | 76 | 87 | 4.0 | 9.0 | 0.00 | 0.01 | 0.00 | 63 | 1018.2 |
| 20260507212030 | 75 | 132 | 2.0 | 9.0 | 0.00 | 0.01 | 0.00 | 63 | 1018.2 |
| 20260507211549 | 76 | 120 | 2.0 | 9.0 | 0.00 | 0.01 | 0.00 | 63 | 1018.3 |
| 20260507211030 | 76 | 341 | 4.0 | 9.0 | 0.00 | 0.01 | 0.00 | 61 | 1018.3 |
| 20260507210530 | 76 | 0 | 1.0 | 8.0 | 0.00 | 0.01 | 0.00 | 63 | 1018.3 |
| 20260507210040 | 76 | 360 | 2.0 | 7.0 | 0.00 | 0.01 | 0.00 | 62 | 1018.4 |
| 20260507205532 | 75 | 38 | 2.0 | 7.0 | 0.00 | 0.02 | 0.00 | 65 | 1018.4 |
| 20260507205035 | 75 | 138 | 2.0 | 7.0 | 0.00 | 0.02 | 0.00 | 67 | 1018.4 |
| 20260507204552 | 74 | 0 | 1.0 | 7.0 | 0.00 | 0.02 | 0.00 | 65 | 1018.5 |
| 20260507204030 | 74 | 95 | 1.0 | 7.0 | 0.00 | 0.02 | 0.00 | 66 | 1018.5 |
| 20260507203529 | 74 | 315 | 2.0 | 7.0 | 0.00 | 0.02 | 0.00 | 67 | 1018.6 |
| 20260507203035 | 74 | 40 | 2.0 | 8.0 | 0.00 | 0.02 | 0.00 | 68 | 1018.6 |
| 20260507202529 | 73 | 160 | 3.0 | 8.0 | 0.00 | 0.02 | 0.00 | 67 | 1018.6 |
| 20260507202030 | 74 | 145 | 2.0 | 6.0 | 0.00 | 0.02 | 0.00 | 67 | 1018.6 |
| 20260507201539 | 75 | 178 | 0.0 | 7.0 | 0.00 | 0.02 | 0.00 | 65 | 1018.7 |
| 20260507201030 | 75 | 153 | 2.0 | 7.0 | 0.00 | 0.02 | 0.00 | 65 | 1018.7 |
| 20260507200531 | 74 | 46 | 1.0 | 5.0 | 0.00 | 0.02 | 0.00 | 68 | 1018.7 |
| 20260507200054 | 73 | 71 | 2.0 | 7.0 | 0.00 | 0.02 | 0.00 | 70 | 1018.8 |
| 20260507195532 | 72 | 165 | 1.0 | 8.0 | 0.00 | 0.02 | 0.00 | 73 | 1018.9 |
| 20260507195030 | 71 | 49 | 3.0 | 8.0 | 0.00 | 0.02 | 0.00 | 71 | 1018.9 |
| 20260507194543 | 71 | 124 | 3.0 | 8.0 | 0.00 | 0.02 | 0.00 | 71 | 1018.9 |
| 20260507194030 | 72 | 154 | 2.0 | 7.0 | 0.00 | 0.02 | 0.00 | 73 | 1019.0 |
| 20260507193532 | 71 | 151 | 2.0 | 7.0 | 0.00 | 0.02 | 0.00 | 71 | 1019.0 |
| 20260507193043 | 71 | 178 | 2.0 | 7.0 | 0.00 | 0.02 | 0.00 | 73 | 1018.9 |
| 20260507192530 | 70 | 161 | 2.0 | 11.0 | 0.00 | 0.02 | 0.00 | 72 | 1019.0 |
| 20260507192027 | 71 | 160 | 3.0 | 11.0 | 0.00 | 0.02 | 0.00 | 72 | 1019.0 |
| 20260507191549 | 71 | 146 | 3.0 | 9.0 | 0.00 | 0.02 | 0.00 | 72 | 1019.0 |
| 20260507191030 | 70 | 88 | 3.0 | 9.0 | 0.00 | 0.02 | 0.00 | 74 | 1019.0 |
| 20260507190529 | 71 | 165 | 2.0 | 7.0 | 0.00 | 0.02 | 0.00 | 72 | 1019.1 |
| 20260507190038 | 71 | 165 | 3.0 | 7.0 | 0.00 | 0.02 | 0.00 | 73 | 1019.1 |
| 20260507185531 | 71 | 146 | 2.0 | 7.0 | 0.00 | 0.02 | 0.00 | 73 | 1019.1 |
| 20260507185028 | 70 | 102 | 4.0 | 7.0 | 0.00 | 0.02 | 0.00 | 71 | 1019.1 |
| 20260507184538 | 70 | 121 | 1.0 | 7.0 | 0.00 | 0.02 | 0.00 | 73 | 1019.2 |
| 20260507184030 | 70 | 213 | 3.0 | 8.0 | 0.00 | 0.02 | 0.00 | 71 | 1019.2 |
| 20260507183530 | 70 | 81 | 2.0 | 8.0 | 0.00 | 0.02 | 0.00 | 73 | 1019.3 |
| 20260507183048 | 70 | 139 | 2.0 | 7.0 | 0.00 | 0.02 | 0.00 | 72 | 1019.2 |
| 20260507182529 | 70 | 141 | 1.0 | 7.0 | 0.00 | 0.02 | 0.00 | 73 | 1019.2 |
| 20260507182029 | 71 | 137 | 2.0 | 7.0 | 0.00 | 0.02 | 0.00 | 71 | 1019.2 |
| 20260507181537 | 71 | 106 | 1.0 | 8.0 | 0.00 | 0.02 | 0.00 | 71 | 1019.2 |
| 20260507181028 | 71 | 42 | 1.0 | 8.0 | 0.00 | 0.02 | 0.00 | 72 | 1019.2 |
| 20260507180530 | 71 | 82 | 2.0 | 6.0 | 0.00 | 0.02 | 0.00 | 69 | 1019.2 |
| 20260507180046 | 71 | 324 | 2.0 | 6.0 | 0.00 | 0.02 | 0.00 | 65 | 1019.1 |
| 20260507175532 | 71 | 9 | 0.0 | 4.0 | 0.00 | 0.02 | 0.00 | 65 | 1019.1 |
| 20260507175030 | 70 | 0 | 1.0 | 6.0 | 0.00 | 0.02 | 0.00 | 65 | 1019.2 |
| 20260507174540 | 70 | 352 | 3.0 | 6.0 | 0.00 | 0.02 | 0.00 | 66 | 1019.2 |
| 20260507174031 | 70 | 21 | 0.0 | 5.0 | 0.00 | 0.02 | 0.00 | 66 | 1019.2 |
| 20260507173531 | 70 | 323 | 1.0 | 5.0 | 0.00 | 0.02 | 0.00 | 66 | 1019.1 |
| 20260507173039 | 70 | 335 | 2.0 | 5.0 | 0.00 | 0.02 | 0.00 | 69 | 1019.1 |
| 20260507172531 | 69 | 23 | 0.0 | 4.0 | 0.00 | 0.02 | 0.00 | 68 | 1019.1 |
| 20260507172030 | 69 | 0 | 1.0 | 4.0 | 0.00 | 0.02 | 0.00 | 68 | 1019.2 |
| 20260507171538 | 68 | 0 | 0.0 | 7.0 | 0.00 | 0.02 | 0.00 | 72 | 1019.1 |
| 20260507171029 | 68 | 5 | 3.0 | 7.0 | 0.00 | 0.02 | 0.00 | 71 | 1019.2 |
| 20260507170529 | 68 | 360 | 2.0 | 5.0 | 0.00 | 0.02 | 0.00 | 71 | 1019.2 |
| 20260507170035 | 68 | 23 | 3.0 | 5.0 | 0.00 | 0.02 | 0.00 | 71 | 1019.3 |
| 20260507165534 | 68 | 44 | 0.0 | 3.0 | 0.00 | 0.03 | 0.00 | 73 | 1019.3 |
| 20260507165031 | 67 | 298 | 0.0 | 5.0 | 0.00 | 0.03 | 0.00 | 74 | 1019.3 |
| 20260507164543 | 67 | 337 | 1.0 | 5.0 | 0.00 | 0.03 | 0.00 | 74 | 1019.3 |
| 20260507164029 | 66 | 0 | 1.0 | 4.0 | 0.00 | 0.03 | 0.00 | 75 | 1019.4 |
| 20260507163529 | 66 | 13 | 2.0 | 4.0 | 0.00 | 0.03 | 0.00 | 75 | 1019.4 |
| 20260507163041 | 66 | 344 | 1.0 | 4.0 | 0.00 | 0.03 | 0.00 | 76 | 1019.5 |
| 20260507162534 | 66 | 346 | 1.0 | 5.0 | 0.00 | 0.03 | 0.00 | 77 | 1019.4 |
| 20260507162032 | 65 | 41 | 2.0 | 5.0 | 0.00 | 0.03 | 0.00 | 77 | 1019.5 |
| 20260507161540 | 65 | 28 | 2.0 | 4.0 | 0.00 | 0.03 | 0.00 | 76 | 1019.6 |
| 20260507161029 | 65 | 0 | 0.0 | 3.0 | 0.00 | 0.03 | 0.00 | 79 | 1019.6 |
| 20260507160531 | 65 | 246 | 0.0 | 3.0 | 0.00 | 0.03 | 0.00 | 78 | 1019.5 |
| 20260507160040 | 65 | 0 | 0.0 | 3.0 | 0.00 | 0.03 | 0.00 | 78 | 1019.5 |
| 20260507155529 | 64 | 333 | 0.0 | 3.0 | 0.00 | 0.03 | 0.00 | 79 | 1019.5 |
| 20260507155031 | 64 | 0 | 0.0 | 3.0 | 0.00 | 0.03 | 0.00 | 81 | 1019.5 |
| 20260507154538 | 64 | 0 | 0.0 | 3.0 | 0.00 | 0.03 | 0.00 | 81 | 1019.4 |
| 20260507154031 | 63 | 0 | 0.0 | 3.0 | 0.00 | 0.03 | 0.00 | 81 | 1019.5 |
| 20260507153530 | 63 | 0 | 0.0 | 3.0 | 0.00 | 0.03 | 0.00 | 82 | 1019.5 |
| 20260507153037 | 63 | 0 | 0.0 | 3.0 | 0.00 | 0.03 | 0.00 | 82 | 1019.5 |
| 20260507152530 | 62 | 0 | 0.0 | 2.0 | 0.00 | 0.03 | 0.00 | 83 | 1019.4 |
| 20260507152031 | 62 | 0 | 0.0 | 2.0 | 0.00 | 0.03 | 0.00 | 83 | 1019.4 |
| 20260507151545 | 62 | 298 | 0.0 | 2.0 | 0.00 | 0.03 | 0.00 | 83 | 1019.4 |
| 20260507151030 | 61 | 0 | 0.0 | 2.0 | 0.00 | 0.03 | 0.00 | 84 | 1019.4 |
| 20260507150531 | 61 | 284 | 0.0 | 2.0 | 0.00 | 0.03 | 0.00 | 85 | 1019.4 |
| 20260507150041 | 61 | 0 | 0.0 | 2.0 | 0.00 | 0.03 | 0.00 | 85 | 1019.5 |
| 20260507145531 | 60 | 0 | 0.0 | 2.0 | 0.00 | 0.04 | 0.00 | 86 | 1019.5 |
| 20260507145030 | 60 | 0 | 0.0 | 2.0 | 0.00 | 0.04 | 0.00 | 86 | 1019.5 |
| 20260507144539 | 59 | 0 | 0.0 | 2.0 | 0.00 | 0.04 | 0.00 | 87 | 1019.4 |
| 20260507144030 | 59 | 0 | 0.0 | 2.0 | 0.00 | 0.04 | 0.00 | 88 | 1019.4 |
| 20260507143530 | 59 | 0 | 0.0 | 2.0 | 0.00 | 0.04 | 0.00 | 88 | 1019.4 |
| 20260507143036 | 59 | 273 | 0.0 | 2.0 | 0.00 | 0.04 | 0.00 | 88 | 1019.3 |
| 20260507142530 | 58 | 0 | 0.0 | 2.0 | 0.00 | 0.04 | 0.00 | 88 | 1019.3 |
| 20260507142030 | 58 | 0 | 0.0 | 2.0 | 0.00 | 0.04 | 0.00 | 88 | 1019.3 |
| 20260507141537 | 58 | 0 | 0.0 | 2.0 | 0.00 | 0.04 | 0.00 | 89 | 1019.1 |
| 20260507141030 | 58 | 0 | 0.0 | 2.0 | 0.00 | 0.04 | 0.00 | 89 | 1019.1 |
| 20260507140529 | 57 | 232 | 0.0 | 2.0 | 0.00 | 0.04 | 0.00 | 89 | 1018.9 |
| 20260507140059 | 57 | 0 | 0.0 | 2.0 | 0.00 | 0.04 | 0.00 | 89 | 1018.9 |
| 20260507135530 | 57 | 0 | 0.0 | 2.0 | 0.00 | 0.05 | 0.00 | 90 | 1018.9 |
| 20260507135030 | 57 | 0 | 0.0 | 3.0 | 0.00 | 0.05 | 0.00 | 90 | 1018.8 |
| 20260507134542 | 57 | 0 | 0.0 | 3.0 | 0.00 | 0.05 | 0.00 | 90 | 1018.8 |
| 20260507134032 | 56 | 236 | 0.0 | 3.0 | 0.00 | 0.05 | 0.00 | 90 | 1018.7 |
| 20260507133530 | 56 | 0 | 0.0 | 2.0 | 0.00 | 0.05 | 0.00 | 90 | 1018.7 |
| 20260507133039 | 56 | 0 | 0.0 | 3.0 | 0.00 | 0.05 | 0.00 | 90 | 1018.7 |
| 20260507132529 | 56 | 277 | 0.0 | 3.0 | 0.00 | 0.05 | 0.00 | 90 | 1018.6 |
| 20260507132029 | 56 | 0 | 1.0 | 3.0 | 0.00 | 0.05 | 0.00 | 90 | 1018.6 |
| 20260507131544 | 56 | 238 | 0.0 | 3.0 | 0.00 | 0.05 | 0.00 | 90 | 1018.7 |
| 20260507131030 | 56 | 265 | 0.0 | 3.0 | 0.00 | 0.05 | 0.00 | 91 | 1018.6 |
| 20260507130531 | 56 | 198 | 0.0 | 3.0 | 0.00 | 0.05 | 0.00 | 91 | 1018.6 |
| 20260507130039 | 56 | 253 | 0.0 | 3.0 | 0.00 | 0.05 | 0.00 | 91 | 1018.6 |
| 20260507125531 | 56 | 0 | 0.0 | 3.0 | 0.00 | 0.05 | 0.00 | 91 | 1018.6 |
| 20260507125030 | 56 | 0 | 0.0 | 3.0 | 0.00 | 0.05 | 0.00 | 91 | 1018.5 |
| 20260507124546 | 56 | 0 | 0.0 | 2.0 | 0.00 | 0.05 | 0.00 | 91 | 1018.6 |
| 20260507124030 | 56 | 0 | 0.0 | 3.0 | 0.00 | 0.05 | 0.00 | 91 | 1018.6 |
| 20260507123529 | 56 | 225 | 1.0 | 3.0 | 0.00 | 0.05 | 0.00 | 91 | 1018.5 |
| 20260507123043 | 56 | 0 | 0.0 | 2.0 | 0.00 | 0.05 | 0.00 | 91 | 1018.5 |
| 20260507122529 | 56 | 0 | 0.0 | 3.0 | 0.00 | 0.05 | 0.00 | 91 | 1018.6 |
| 20260507122030 | 56 | 0 | 0.0 | 3.0 | 0.00 | 0.05 | 0.00 | 91 | 1018.6 |
| 20260507121538 | 56 | 0 | 0.0 | 3.0 | 0.00 | 0.05 | 0.00 | 91 | 1018.6 |
| 20260507121029 | 56 | 0 | 0.0 | 3.0 | 0.00 | 0.05 | 0.00 | 91 | 1018.5 |
| 20260507120529 | 56 | 0 | 0.0 | 3.0 | 0.00 | 0.05 | 0.00 | 92 | 1018.6 |
| 20260507120051 | 56 | 0 | 0.0 | 3.0 | 0.00 | 0.05 | 0.00 | 92 | 1018.6 |
| 20260507115530 | 56 | 235 | 0.0 | 3.0 | 0.00 | 0.06 | 0.00 | 92 | 1018.7 |
| 20260507115033 | 56 | 232 | 0.0 | 2.0 | 0.00 | 0.06 | 0.00 | 92 | 1018.6 |
| 20260507114539 | 56 | 0 | 0.0 | 2.0 | 0.00 | 0.06 | 0.00 | 92 | 1018.7 |
| 20260507114029 | 56 | 0 | 0.0 | 2.0 | 0.00 | 0.06 | 0.00 | 92 | 1018.6 |
| 20260507113531 | 56 | 252 | 0.0 | 2.0 | 0.00 | 0.06 | 0.00 | 91 | 1018.7 |
| 20260507113041 | 56 | 234 | 0.0 | 2.0 | 0.00 | 0.06 | 0.00 | 91 | 1018.6 |
| 20260507112533 | 56 | 0 | 0.0 | 2.0 | 0.00 | 0.06 | 0.00 | 91 | 1018.6 |
| 20260507112032 | 56 | 0 | 0.0 | 2.0 | 0.00 | 0.06 | 0.00 | 91 | 1018.7 |
| 20260507111538 | 56 | 0 | 0.0 | 1.0 | 0.00 | 0.06 | 0.00 | 91 | 1018.6 |